Location: Palomar Mountain Lodge
(33.3110°N, 116.8495°W)
Time: 06:56:11
(UTC-07:00)

MOZHAYETS 4 - Pass Details

Date: 12 April 2026
Orbit: 642 x 659 km, 98.3° (Epoch: 12 May)

Event Time Altitude Azimuth Distance (km) Brightness Sun altitude
Rises 05:47:40 0° 161° (SSE) 2,957 11.1 -7.6°
Reaches altitude 10° 05:49:52 10° 159° (SSE) 2,047 10.3 -7.1°
Maximum altitude 05:54:19 72° 76° (ENE) 683 8.0 -6.2°
Drops below altitude 10° 05:58:46 10° 352° (N) 2,049 10.3 -5.3°
Sets 06:00:59 0° 351° (N) 2,961 11.1 -4.9°
